User: anonymous   Login
Location: Unspecified
(0.0000°N, 0.0000°E)
Time: 22:20:24
(UTC+00:00)
Language:

STARLINK-3894 - Orbit

View from above orbital plane
View from above orbital plane
View from above satellite
View from above satellite

Ground track
Ground track

The orbit is defined by the following mean orbital elements,

1 52499U          26145.66668980 +.00000000 +00000-0 +45250-1 0 00006
2 52499  53.2212  61.8185 0001256  71.1474 186.3397 15.36031679    01
Epoch (UTC): 25 May 2026 16:00:01
Eccentricity: 0.0001256
inclination: 53.2212°
perigee height: 457 km
apogee height: 459 km
right ascension of ascending node: 61.8185°
argument of perigee: 71.1474°
revolutions per day: 15.36031679
mean anomaly at epoch: 186.3397°

The dashed part of the orbit path shows where the satellite is in the earth's shadow,  

DLR